Notices

What's New in latest Release from April 7th, 2021:

- Updated Glossary, including Speed of Maximum Gust, and Total Hourly Precipitation

- Updated national and regional climate services offices contacts and prices information

- Addition of station inventory lists for 1981-2010, 1971-2000, and 1961-1990 Normals.

If you haven't already, please take our survey and provide feedback about our website: https://eccc.sondage-survey.ca/f/LanguageSelection.aspx?s=442ca660-fcf1-47c0-95a9-59707d6fd709

Hourly Data Report for August 08, 2015

IQALUIT CLIMATE
NUNAVUT

63°44'50.000" N
68°32'40.000" W
33.50 m
2402592
71321
XFB

Download Data

Hourly Data (August 2015)
Hourly Data Report for August 8, 2015
TIME
LST
Temp Definition
°C
Dew Point Definition
°C
Rel Hum Definition
%
Precip. Amount Definition
mm

Wind Dir Definition
10's deg

Wind Spd Definition
km/h
Visibility Definition
km
Stn Press Definition
kPa
Hmdx Definition


Wind Chill Definition


Weather Definition


00:00 LegendMM 2.7 76 0.0 14 5   100.88     LegendNANA
01:00 9.2 3.0 65 0.0 1 3   100.89     LegendNANA
02:00 7.2 2.6 73 0.0 0 1   100.89     LegendNANA
03:00 7.0 2.9 75 0.0 7 2   100.88     LegendNANA
04:00 8.8 4.4 74 0.0 3 3   100.86     LegendNANA
05:00 10.4 2.4 58 0.0 33 3   100.85     LegendNANA
06:00 12.0 2.0 50 0.0 16 3   100.84     LegendNANA
07:00 11.7 4.1 59 0.0 14 6   100.85     LegendNANA
08:00 11.3 5.4 67 0.0 14 9   100.84     LegendNANA
09:00 12.9 5.7 62 0.0 15 8   100.82     LegendNANA
10:00 15.8 7.2 57 0.0 17 6   100.80     LegendNANA
11:00 17.5 4.9 43 0.0 29 25   100.78     LegendNANA
12:00 18.9 5.0 40 0.0 29 22   100.80     LegendNANA
13:00 19.4 3.2 34 0.0 29 31   100.82     LegendNANA
14:00 18.9 3.7 37 0.0 29 27   100.86     LegendNANA
15:00 18.0 3.6 38 0.0 29 27   100.89     LegendNANA
16:00 18.1 2.8 36 0.0 30 35   100.92     LegendNANA
17:00 16.2 3.5 43 0.0 29 28   100.97     LegendNANA
18:00 15.0 5.6 53 0.0 30 28   100.97     LegendNANA
19:00 14.0 6.5 61 0.0 30 17   101.02     LegendNANA
20:00 13.4 6.7 64 0.0 33 7   101.05     LegendNANA
21:00 12.2 5.5 64 0.0 25 6   101.08     LegendNANA
22:00 11.0 4.4 64 0.0 29 11   101.09     LegendNANA
23:00 11.1 4.5 64 0.0 25 13   101.07     LegendNANA

Notes on Data Quality.

Legend

  • E = Estimated
  • M = Missing
  • NA = Not Available*
  • [empty] = Indicates an unobserved value
Date modified: